free-power-point-templates.com alexa rank chart, free-power-point-templates.com alexa rank daily changes

free-power-point-templates.com alexa rank chart, free-power-point-templates.com alexa rank daily changes

free-power-point-templates.com
Actual rank:
7 604

RANK HISTORY

Date Rank Diff
2017/03/29 7 604 -41
2017/03/28 7 645 -7
2017/03/27 7 652 +38
2017/03/26 7 614 +28
2017/03/25 7 586 +99
2017/03/24 7 487 +44
2017/03/23 7 443 +51
2017/03/22 7 392 -3
2017/03/21 7 395 +23
2017/03/20 7 372 +14
2017/03/19 7 358 +39
2017/03/18 7 319 +71
2017/03/17 7 248 +5
2017/03/16 7 243 +14
2017/03/15 7 229 +3
2017/03/14 7 226 +48
2017/03/13 7 178 +63
2017/03/12 7 115 +19
2017/03/11 7 096 -27
2017/03/10 7 123 -6
2017/03/09 7 129 -40
2017/03/08 7 169 -26
2017/03/07 7 195 +28
2017/03/06 7 167 -14
2017/03/01 7 181 -142
2017/02/28 7 323 +25
2017/02/27 7 298 +3
2017/02/26 7 295 -29
2017/02/25 7 324 -8
2017/02/24 7 332 -37
2017/02/23 7 369 -70
2017/02/22 7 439 -13
2017/02/21 7 452 -19
2017/02/20 7 471 +24
2017/02/19 7 447 +15
2017/02/18 7 432 -11
2017/02/17 7 443 -14
2017/02/16 7 457 -72
2017/02/15 7 529 -17
2017/02/14 7 546 -50
2017/02/13 7 596 -39
2017/02/12 7 635 +19
2017/02/11 7 616 -3
2017/02/10 7 619 -2
2017/02/09 7 621 -29
2017/02/08 7 650 -38
2017/02/07 7 688 +7
2017/02/06 7 681 -20
2017/02/05 7 701 -27
2017/02/04 7 728 -76
2017/02/03 7 804 -134
2017/02/02 7 938 -67
2017/02/01 8 005 -109
2017/01/31 8 114 -54
2017/01/30 8 168 -41
2017/01/29 8 209 -50
2017/01/28 8 259

WIDGET FOR YOUR SITE

DOMAINS WITH THE NEAREST RANK

Domain Rank
russian7.ru 7 599
arukereso.hu 7 600
ratp.fr 7 601
sketchfab.com 7 602
bsi.ir 7 603
free-power-point-templates.com 7 604
amung.us 7 605
mybroadband.co.za 7 606
paradoxplaza.com 7 607
voicetube.com 7 608
net.hr 7 609

DOMAINS WITH THE NEAREST RANK BY TLD .com

Domain Rank
obsproject.com 7 591
duowan.com 7 592
disquscdn.com 7 594
getuploader.com 7 596
sketchfab.com 7 602
free-power-point-templates.com 7 604
paradoxplaza.com 7 607
voicetube.com 7 608
lexisnexis.com 7 610
muscleandfitness.com 7 612
care.com 7 613